Total_Precipitation_Accumulation
1.09 1.26 1.74 2.28 2.66 3.11 3.39 3.33 3.13 3.17 3.30 3.36 3.16 3.33 3.56 3.83 4.06 3.96 3.84 3.78 3.74 3.71 3.70 3.72 3.70 3.58 3.49 3.34 3.14 2.99 2.89 2.70 2.50 2.43 2.14 1.83 1.61 1.55 1.52 1.56 1.64 1.63 1.60
1.11 1.38 1.82 2.12 2.52 2.86 3.01 3.26 3.36 3.38 3.22 3.52 3.73 3.94 4.26 4.40 4.64 4.87 4.95 4.84 4.59 4.37 4.14 4.07 3.90 3.60 3.43 3.30 3.10 2.95 2.81 2.56 2.41 2.37 2.34 1.97 1.69 1.42 1.26 1.34 1.36 1.42 1.54
1.35 1.61 1.90 2.06 2.31 2.71 2.95 3.23 3.50 3.58 3.49 3.88 4.40 4.81 5.11 5.11 5.19 5.24 5.30 5.26 4.82 4.43 4.11 3.83 3.67 3.49 3.31 3.15 3.06 2.94 2.81 2.60 2.42 2.32 2.44 2.32 2.04 1.67 1.48 1.35 1.36 1.43 1.48
1.25 1.47 1.68 2.07 2.19 2.50 2.77 3.03 3.34 3.71 4.00 4.41 4.89 5.46 5.73 5.84 5.76 5.47 5.22 4.89 4.45 4.06 3.62 3.40 3.39 3.25 3.05 2.88 2.67 2.53 2.47 2.42 2.33 2.27 2.16 2.12 2.07 1.93 1.76 1.57 1.55 1.56 1.55
1.18 1.25 1.39 1.71 2.00 2.28 2.54 2.83 3.12 3.51 4.16 4.93 5.47 5.85 6.12 6.09 5.69 5.20 4.61 4.16 3.80 3.48 3.21 3.02 3.04 2.96 2.71 2.48 2.25 2.06 1.99 1.99 2.06 2.07 2.02 1.95 1.91 1.77 1.69 1.65 1.58 1.55 1.53
1.24 1.26 1.34 1.57 1.83 2.00 2.23 2.55 2.94 3.25 3.78 4.52 5.13 5.43 5.65 5.59 5.22 4.60 4.07 3.68 3.28 2.95 2.66 2.40 2.28 2.16 2.00 1.90 1.81 1.70 1.65 1.64 1.74 1.80 1.77 1.76 1.77 1.75 1.74 1.71 1.59 1.58 1.64
1.28 1.27 1.27 1.41 1.62 1.76 1.97 2.20 2.52 2.94 3.28 3.67 4.23 4.41 4.46 4.29 3.91 3.64 3.42 3.05 2.66 2.35 2.06 1.85 1.73 1.66 1.61 1.57 1.56 1.53 1.49 1.40 1.41 1.44 1.48 1.51 1.49 1.53 1.65 1.78 1.79 1.71 1.60
1.18 1.19 1.18 1.32 1.53 1.67 1.84 1.99 2.19 2.55 2.85 2.97 3.13 3.14 3.07 3.00 2.84 2.65 2.40 2.17 1.94 1.79 1.66 1.50 1.39 1.36 1.38 1.34 1.36 1.34 1.28 1.19 1.14 1.10 1.15 1.21 1.21 1.34 1.53 1.65 1.81 1.87 1.67
1.16 1.16 1.16 1.25 1.43 1.55 1.66 1.72 1.75 1.89 1.98 2.08 2.15 2.19 2.16 2.03 1.99 1.93 1.75 1.61 1.46 1.34 1.31 1.24 1.17 1.11 1.06 1.01 1.00 1.00 1.02 1.05 1.07 1.01 0.99 1.02 1.04 1.15 1.29 1.40 1.59 1.77 1.74
1.16 1.18 1.19 1.23 1.22 1.27 1.35 1.41 1.42 1.44 1.46 1.49 1.47 1.56 1.56 1.45 1.36 1.30 1.25 1.16 1.08 1.00 1.01 0.97 0.90 0.89 0.92 0.87 0.81 0.81 0.86 0.90 0.95 0.97 0.92 0.91 0.93 0.97 1.03 1.11 1.25 1.43 1.57
1.25 1.20 1.19 1.15 1.08 1.05 1.06 1.14 1.21 1.23 1.26 1.26 1.26 1.30 1.29 1.20 1.10 1.04 0.99 0.93 0.89 0.85 0.80 0.76 0.72 0.72 0.75 0.77 0.80 0.79 0.80 0.86 0.87 0.87 0.86 0.85 0.86 0.90 0.89 0.94 1.04 1.18 1.32
1.24 1.17 1.13 1.14 1.07 1.02 0.96 1.01 1.04 1.00 1.04 1.08 1.17 1.22 1.17 1.12 1.05 0.97 0.90 0.86 0.77 0.72 0.70 0.71 0.67 0.62 0.60 0.64 0.69 0.73 0.73 0.81 0.83 0.82 0.84 0.82 0.82 0.87 0.86 0.88 0.93 1.05 1.20
1.37 1.26 1.15 1.09 1.04 1.02 1.01 1.00 0.99 0.95 0.94 0.89 0.90 0.99 0.99 0.97 0.93 0.84 0.76 0.70 0.65 0.63 0.61 0.58 0.57 0.57 0.54 0.54 0.56 0.59 0.62 0.70 0.76 0.78 0.85 0.86 0.86 0.84 0.83 0.86 0.92 1.04 1.16
1.37 1.23 1.16 1.09 1.01 0.97 1.00 0.99 0.93 0.85 0.84 0.81 0.82 0.87 0.88 0.88 0.90 0.83 0.73 0.63 0.56 0.54 0.52 0.47 0.47 0.52 0.50 0.44 0.43 0.46 0.51 0.58 0.62 0.65 0.78 0.85 0.84 0.84 0.87 0.90 0.95 1.03 1.17
1.42 1.35 1.23 1.12 0.96 0.87 0.88 0.88 0.86 0.81 0.78 0.80 0.83 0.90 0.85 0.82 0.87 0.90 0.80 0.68 0.59 0.52 0.51 0.48 0.43 0.46 0.43 0.39 0.40 0.42 0.42 0.50 0.53 0.55 0.63 0.70 0.71 0.73 0.78 0.81 0.89 1.01 1.16
1.66 1.59 1.42 1.25 1.07 0.96 0.92 0.90 0.86 0.77 0.71 0.74 0.85 0.91 0.90 0.88 0.89 0.94 0.89 0.79 0.69 0.61 0.52 0.47 0.44 0.44 0.40 0.39 0.37 0.39 0.42 0.48 0.56 0.62 0.63 0.59 0.60 0.59 0.58 0.65 0.74 0.89 1.08
1.72 1.57 1.43 1.29 1.17 1.11 1.02 0.99 0.92 0.81 0.78 0.80 0.83 0.88 0.90 0.95 0.95 0.92 0.88 0.84 0.74 0.66 0.58 0.48 0.48 0.48 0.40 0.34 0.31 0.32 0.40 0.51 0.60 0.66 0.65 0.53 0.51 0.61 0.64 0.65 0.67 0.78 0.89
1.85 1.77 1.57 1.42 1.26 1.11 1.02 0.94 0.87 0.82 0.84 0.85 0.83 0.78 0.77 0.79 0.77 0.81 0.86 0.81 0.74 0.66 0.59 0.51 0.48 0.48 0.36 0.30 0.28 0.31 0.36 0.44 0.47 0.49 0.55 0.63 0.65 0.58 0.60 0.62 0.73 0.82 0.92
1.75 1.68 1.55 1.46 1.34 1.18 1.04 0.95 0.89 0.83 0.81 0.80 0.75 0.67 0.62 0.64 0.63 0.68 0.75 0.73 0.70 0.62 0.54 0.47 0.47 0.47 0.38 0.30 0.26 0.29 0.36 0.41 0.38 0.35 0.39 0.46 0.50 0.48 0.55 0.67 0.83 0.89 1.00
1.29 1.27 1.24 1.21 1.15 1.04 0.93 0.92 0.90 0.80 0.73 0.68 0.61 0.56 0.53 0.56 0.58 0.61 0.67 0.66 0.64 0.53 0.44 0.41 0.42 0.40 0.38 0.29 0.24 0.26 0.31 0.39 0.36 0.38 0.43 0.43 0.37 0.40 0.51 0.70 0.89 1.04 1.08
1.09 1.03 1.00 1.02 1.00 0.89 0.86 0.88 0.85 0.77 0.62 0.52 0.51 0.52 0.55 0.57 0.56 0.61 0.65 0.60 0.53 0.49 0.44 0.43 0.42 0.37 0.30 0.24 0.19 0.19 0.24 0.31 0.36 0.41 0.47 0.47 0.40 0.38 0.44 0.62 0.82 0.99 1.03
1.14 1.05 0.98 0.92 0.84 0.80 0.85 0.88 0.79 0.61 0.49 0.47 0.51 0.54 0.54 0.51 0.50 0.58 0.63 0.55 0.52 0.50 0.50 0.49 0.43 0.35 0.27 0.21 0.17 0.14 0.13 0.17 0.34 0.48 0.45 0.43 0.41 0.39 0.46 0.61 0.78 0.92 1.10
1.08 1.03 0.90 0.80 0.69 0.67 0.74 0.76 0.63 0.45 0.41 0.46 0.55 0.56 0.52 0.59 0.58 0.55 0.53 0.51 0.50 0.44 0.41 0.41 0.38 0.35 0.30 0.25 0.18 0.15 0.14 0.16 0.28 0.41 0.45 0.43 0.40 0.51 0.71 0.84 0.95 1.10 1.30
0.89 0.81 0.76 0.69 0.59 0.55 0.53 0.50 0.40 0.38 0.43 0.52 0.54 0.53 0.56 0.66 0.64 0.53 0.42 0.38 0.37 0.33 0.32 0.34 0.35 0.36 0.35 0.28 0.22 0.22 0.23 0.25 0.30 0.40 0.52 0.58 0.60 0.76 0.97 1.13 1.23 1.33 1.36
0.69 0.63 0.63 0.59 0.48 0.42 0.39 0.32 0.29 0.34 0.44 0.48 0.51 0.52 0.54 0.58 0.59 0.48 0.33 0.27 0.21 0.17 0.20 0.24 0.26 0.32 0.32 0.22 0.20 0.22 0.25 0.28 0.31 0.37 0.56 0.71 0.75 0.88 1.03 1.17 1.25 1.31 1.30
0.56 0.55 0.53 0.49 0.41 0.37 0.36 0.30 0.25 0.30 0.42 0.46 0.43 0.39 0.40 0.40 0.39 0.38 0.33 0.20 0.10 0.07 0.07 0.09 0.13 0.16 0.17 0.15 0.14 0.18 0.22 0.26 0.33 0.44 0.68 0.79 0.79 0.85 0.94 1.05 1.15 1.15 1.11